Location: Horní Podkozí
(50.0500°N, 14.1167°E)
Time: 00:08:47
(UTC+00:00)

Daily predictions for brighter satellites

Satellite Brightness Start Highest point End
(mag) Time Altitude Azimuth Time Altitude Azimuth Time Altitude Azimuth
Cosmos 546 4.5 00:00:44 10° WNW 00:04:31 65° SSW 00:08:18 10° ESE
SL-4 R/B 2.1 00:00:46 10° W 00:04:49 70° N 00:08:42 10° E
OPS 8737 4.2 00:02:27 10° NW 00:05:23 49° SW 00:06:00 41° S
Resurs 1-4 Rocket 4.3 00:05:03 10° NE 00:08:17 16° E 00:11:32 10° SE
Cosmos 2082 Rocket 3.7 00:03:40 10° NNW 00:08:56 37° NE 00:14:12 10° ESE
Timation 2 Rocket 4.2 00:08:50 22° S 00:12:36 53° ESE 00:18:25 10° NE
Cosmos 2278 Rocket 3.3 00:11:06 16° SSE 00:14:49 33° ESE 00:19:49 10° NE
CZ-2C R/B 2.6 00:14:32 22° S 00:17:58 67° WSW 00:23:18 10° NNW
SJ 16-02 2.3 00:15:31 17° WSW 00:18:22 38° WNW 00:22:26 10° N
USA 229 DEB 4.0 00:12:57 10° NW 00:20:21 89° SW 00:28:29 10° SE
USA 229 4.0 00:13:03 10° NW 00:20:27 89° SW 00:28:35 10° SE
Cosmos 1943 Rocket 3.3 00:17:38 15° SSE 00:21:21 32° ESE 00:26:12 10° NE
Cosmos 2151 Rocket 3.5 00:17:18 10° NNW 00:21:45 83° W 00:24:39 21° S
CZ-2D R/B 4.2 00:18:35 10° NE 00:22:31 20° E 00:26:24 10° SE
Cosmos 371 Rocket 3.4 00:19:30 23° SSW 00:22:31 74° WNW 00:27:23 10° NNE
Meteor 1-21 Rocket 4.4 00:19:49 20° S 00:24:00 77° E 00:29:52 10° NNE
Okean 2 Rocket 3.1 00:20:11 10° N 00:24:42 87° E 00:27:51 19° S
USA 307 3.1 00:21:11 10° W 00:25:00 61° NNW 00:28:56 10° ENE
Cosmos 1741 Rocket 4.1 00:26:35 21° SW 00:30:10 71° WNW 00:35:31 10° NNE
Okean 1 Rocket 3.1 00:30:21 10° N 00:34:50 85° E 00:38:19 17° S
Cosmos 375 4.4 00:32:22 10° NW 00:36:48 58° SW 00:40:19 12° SSE
Cosmos 1025 Rocket 3.1 00:37:03 20° S 00:39:54 69° E 00:44:10 10° NNE
Nadezhda 4 Rocket 4.0 00:38:07 19° SSW 00:42:48 81° W 00:49:07 10° N
SL-19 R/B 4.3 00:37:24 10° NNE 00:43:03 85° ESE 00:47:17 18° SSW
Cosmos 1378 Rocket 3.9 00:40:25 21° SSW 00:43:08 53° WNW 00:47:27 10° N
USA 234 3.3 00:37:40 10° ENE 00:44:14 86° NNW 00:50:47 10° WSW
USA 81 4.2 00:40:40 16° S 00:44:52 74° E 00:50:08 10° N
Cosmos 1092 Rocket 4.4 00:41:31 12° S 00:47:09 60° E 00:53:23 10° NNE
In-Cosmos 22 Rocket 4.3 00:44:33 19° SSW 00:48:41 72° WNW 00:54:28 10° N
Meteor 2-1 Rocket 4.5 00:43:38 10° N 00:49:36 79° ENE 00:55:34 10° SSE
Cosmos 1340 Rocket 3.2 00:46:16 10° NNW 00:49:56 44° W 00:52:07 21° SSW
ADEOS II 3.9 00:49:27 10° NE 00:53:46 25° E 00:58:02 10° SSE
USA 59 Rocket 2.1 00:53:19 10° W 00:54:18 11° WSW 00:54:18 11° WSW
Cosmos 158 Rocket 3.9 00:49:51 10° NNW 00:54:56 71° WSW 00:59:52 10° SSE
Cosmos 1975 Rocket 4.3 00:52:32 10° SSE 00:56:37 36° E 01:00:41 10° NNE
ATLAS 3B R/B 3.2 00:55:46 10° NW 01:03:16 49° WSW 01:10:27 10° S
MOZ.5/SAFIR/RUBIN 5/SL-8 3.7 01:03:04 11° S 01:07:22 71° WSW 01:11:59 10° NNW
Timation 1 Rocket 4.4 01:01:39 10° NNW 01:07:42 84° ENE 01:13:43 10° SSE
H-2A R/B 4.1 01:06:39 13° WSW 01:07:57 15° W 01:10:11 10° NW
FENGYUN 3A 3.9 01:05:46 10° NNE 01:11:08 66° ESE 01:16:14 11° S
Cosmos 2026 Rocket 4.0 01:06:31 13° S 01:12:10 86° W 01:18:26 10° N
H-2A R/B 1.9 01:09:45 10° NNE 01:13:45 76° ESE 01:17:10 14° S
Cosmos 1515 3.7 01:11:37 10° N 01:14:16 47° ENE 01:16:53 10° SSE
IDEFIX/ARIANE 42P 2.7 01:12:23 10° N 01:17:38 71° WNW 01:22:10 14° SSW
USA 305 0.6 01:16:30 10° WNW 01:18:43 75° NNE 01:20:04 10° ESE
ATLAS 2AS CENTAUR R/B 3.7 01:14:15 10° WSW 01:21:00 45° NNW 01:27:34 10° NE
Cosmos 1455 Rocket 3.0 01:16:40 10° NNW 01:21:01 69° W 01:25:18 10° S
Cosmos 220 Rocket 4.0 01:18:12 10° NNW 01:22:23 80° ENE 01:26:33 10° SSE
Cosmos 1833 Rocket 4.0 01:18:14 10° NW 01:22:25 22° WSW 01:25:45 13° SW
Envisat 4.4 01:18:31 10° NNE 01:23:08 33° E 01:27:41 10° SSE
Cosmos 2221 Rocket 4.4 01:21:46 14° SW 01:25:07 38° WNW 01:29:16 10° N
Cosmos 1812 2.6 01:25:03 10° NNW 01:28:07 46° W 01:30:44 13° SSW
MSX 4.0 01:23:24 10° N 01:29:07 66° WNW 01:34:26 12° SSW
H-2A R/B 4.4 01:27:14 10° NE 01:30:55 19° E 01:34:32 10° SE
Cosmos 836 Rocket 4.5 01:26:20 10° NNW 01:31:35 81° WSW 01:36:50 10° SSE
NPP 3.8 01:27:39 10° N 01:33:00 64° WNW 01:38:05 11° SSW
ATLAS 5 CENTAUR R/B 2.5 01:34:40 10° S 01:37:11 23° ESE 01:39:52 10° ENE
Cosmos 332 Rocket 4.4 01:37:42 11° SW 01:42:08 47° WNW 01:46:48 10° NNE
Cosmos 2228 3.0 01:38:05 10° N 01:42:14 83° E 01:46:21 10° SSE
SL-4 R/B 1.8 01:39:00 10° WNW 01:42:58 88° N 01:46:44 10° ESE
COSMOS 2406 3.2 01:38:00 10° NNW 01:43:47 84° WSW 01:49:32 10° SSE
Resurs 1-4 Rocket 2.1 01:43:27 10° NNE 01:48:44 84° WNW 01:54:00 10° SSW
Cosmos 1486 Rocket 4.2 01:45:31 10° SSW 01:50:40 71° ESE 01:55:54 10° NNE
Cosmos 1666 0.7 01:49:38 12° S 01:51:06 68° E 01:52:45 10° NNE
Cosmos 2082 Rocket 2.5 01:47:42 10° NW 01:53:11 48° WSW 01:58:36 10° S
USA 307 3.8 01:51:40 10° WNW 01:55:31 45° N 01:59:08 10° ENE
Meteor 1-27 4.4 01:50:35 10° NNW 01:56:23 69° W 02:02:10 10° S
Cosmos 2278 Rocket 2.8 01:53:13 10° SW 01:58:41 50° NW 02:04:13 10° NNE
Cosmos 2098 Rocket 3.0 01:56:25 10° NNW 02:00:07 43° W 02:03:16 10° SSW
CZ-2D R/B 2.3 01:57:38 10° NNE 02:03:03 71° WNW 02:08:21 10° SSW
Cosmos 1777 Rocket 4.4 01:58:28 10° S 02:03:39 63° ESE 02:08:51 10° NNE
Cosmos 1943 Rocket 2.7 01:59:34 10° SW 02:04:53 49° NW 02:10:15 10° NNE
Cosmos 1544 Rocket 3.5 02:00:41 10° NNW 02:05:00 76° W 02:09:16 10° S
SL-16 R/B 2.8 01:59:08 10° SSE 02:05:19 80° ENE 02:11:35 10° NNW
ALOS 2.3 02:00:55 10° NNE 02:05:31 89° WNW 02:10:06 10° SSW
Cosmos 1656 Rocket 4.2 02:00:48 10° S 02:06:18 56° ESE 02:11:47 10° NE
